User: anonymous   Login
Location: Unspecified
(0.0000°N, 0.0000°E)
Time: 00:12:20
(UTC+00:00)
Language:

Italsat 1 - Orbit

View from above orbital plane
View from above orbital plane
View from above satellite
View from above satellite

Ground track
Ground track

The orbit data is extracted from the following two-line orbital elements,

1 21055U 91003A   18112.50513346 -.00000178 +00000-0 +00000-0 0  9993
2 21055 014.8032 016.6425 0017047 334.5953 312.0958 00.99956549087311
Epoch (UTC): 22 April 2018 12:07:23
Eccentricity: 0.0017047
inclination: 14.8032°
perigee height: 35803 km
apogee height: 35947 km
right ascension of ascending node: 16.6425°
argument of perigee: 334.5953°
revolutions per day: 0.99956549
mean anomaly at epoch: 312.0958°
orbit number at epoch: 8731

The dashed part of the orbit path shows where the satellite is in the earth's shadow,  

DLR